Regional Weather Roundup
Issued by NWS Upton, NY

Home | Current Version | Previous Version | Text Only | Print | Product List | Glossary On
Versions: 1 2 3 4 5 6 7 8 9 10 11 12 13 14 15 16 17 18 19 20 21 22 23 24 25 26 27 28 29 30 31 32 33 34 35 36 37 38 39 40 41 42 43 44 45 46 47 48 49 50
000
ASUS41 KOKX 260607
RWROKX

REGIONAL WEATHER ROUNDUP
NATIONAL WEATHER SERVICE NEW YORK NY
200 AM EDT SUN APR 26 2015

NOTE: "FAIR" INDICATES FEW OR NO CLOUDS BELOW 12,000 FEET WITH NO
SIGNIFICANT WEATHER AND/OR OBSTRUCTIONS TO VISIBILITY.

NYZ071-072-176-178-NJZ106-104-260700-
NEW YORK CITY METRO AREA


CITY           SKY/WX    TMP DP  RH WIND       PRES   REMARKS
CENTRAL PARK   MOCLDY    50  26  39 NE8       29.70F
LAGUARDIA APRT MOCLDY    49  30  48 NE8       29.68F
KENNEDY INTL   MOCLDY    44  34  67 NE5       29.69F
NEWARK/LIBERTY MOCLDY    50  29  44 NE12      29.68F
BRNX BOT. GARD   N/A     46  28  49 CALM      29.68F
TETERBORO      MOCLDY    48  27  44 N6        29.68F
$$

NYZ177-179-078>081-260700-
LONG ISLAND NEW YORK

CITY           SKY/WX    TMP DP  RH WIND       PRES   REMARKS
FARMINGDALE    PTCLDY    43  34  70 N8        29.68F
ISLIP          PTCLDY    39  34  82 CALM      29.66F
SHIRLEY        PTCLDY    36  31  82 CALM      29.68F
WESTHAMPTON    PTCLDY    32  26  78 CALM      29.69F
MONTAUK POINT    N/A     43  35  73 CALM      29.70F
$$

NYZ052-065-067-260700-
HUDSON VALLEY

CITY           SKY/WX    TMP DP  RH WIND       PRES   REMARKS
WHITE PLAINS   PTCLDY    44  26  49 N6        29.67F
NEWBURGH       CLEAR     41  28  60 CALM      29.71F
MONTGOMERY     CLEAR     33  28  81 CALM      29.69F
POUGHKEEPSIE   CLEAR     34  29  82 CALM      29.70F
ALBANY         CLOUDY    43  28  55 CALM      29.73F
$$

NJZ001-105-106-008-010-013-015-019>022-104-260700-
NEW JERSEY

CITY           SKY/WX    TMP DP  RH WIND       PRES   REMARKS
NEWARK/LIBERTY MOCLDY    50  29  44 NE12      29.68F
TETERBORO      MOCLDY    48  27  44 N6        29.68F
CALDWELL       MOCLDY    45  27  49 CALM      29.69F
MORRISTOWN     MOCLDY    46  28  49 CALM      29.69S
SOMERVILLE     MOCLDY    38  32  79 CALM      29.67F
SUSSEX         CLEAR     34  27  75 CALM      29.70F
ANDOVER          N/A     39  32  76 CALM      29.69F
TRENTON        PTCLDY    47  26  44 N7        29.67F
MILLVILLE      CLOUDY    45  39  79 W5        29.68S
ATLANTIC CITY  CLOUDY    45  34  65 W5        29.67F
WRIGHTSTOWN    PTCLDY    42  31  66 SW2       29.65S
TOMS RIVER     MOCLDY    41  34  75 CALM      29.65F
BELMAR         PTCLDY    43  25  49 NW5       29.66F
$$

PAZ047>061-062-071-260700-
EASTERN PENNSYLVANIA

CITY           SKY/WX    TMP DP  RH WIND       PRES   REMARKS
PHILADELPHIA   MOCLDY    49  34  56 W6        29.69S
ALLENTOWN      PTCLDY    42  28  57 CALM      29.69F
SCRANTON       PTCLDY    39  25  57 CALM      29.70F
$$

CTZ002-004>006-009-010-012-RIZ004-006-007-MAZ004-011-015-260700-
SOUTHERN NEW ENGLAND
 IN CT

CITY           SKY/WX    TMP DP  RH WIND       PRES   REMARKS
BRADLEY INTL   PTCLDY    43  28  55 N5        29.69F
HARTFORD       CLEAR     42  30  62 SE8       29.71S
DANBURY        CLEAR     34  27  75 W3        29.71F
WTRBRY/OXFORD  CLEAR     39  25  56 N7        29.69F WCI  34
BRIDGEPORT     PTCLDY    45  31  58 N8        29.69F
MERIDEN        CLEAR     42  29  59 CALM      29.70F
NEW HAVEN      CLEAR     41  31  67 N5        29.69F
CHESTER        FAIR      45  28  53 NE3       29.70S
GROTON         CLEAR     42  28  57 NE6       29.69F
WILLIMANTIC    CLEAR     38  32  79 CALM      29.71S

 IN RI

CITY           SKY/WX    TMP DP  RH WIND       PRES   REMARKS
PROVIDENCE     CLEAR     45  29  53 N10       29.71S
BLOCK ISLAND   PTCLDY    43  36  75 NE6       29.69S
WESTERLY       CLEAR     40  32  73 CALM      29.70F

 IN MA

CITY           SKY/WX    TMP DP  RH WIND       PRES   REMARKS
BOSTON         CLOUDY    44  30  57 N8        29.70F
WORCESTER      CLOUDY    42  27  55 N8        29.68F
WESTFIELD      CLEAR     35  28  75 CALM      29.70F
PROVINCETOWN   CLEAR    N/A N/A N/A N7        29.69F
NANTUCKET      CLOUDY    43  37  79 N7        29.68F
$$

ANZ330-335-338-340-345-350-353-355-260700-
COASTAL MARINE OBSERVATIONS


STATION/POSITION TIME  SKY/WX   TEMP    WIND        PRES    VSBY  WAVE
                                AIR SEA DIR/SP/G                  HT/PER
                 (UTC)          (F)     (DEG/KT/KT) (MB)    (MI)  (FT/S)
NY HARB ENTRANCE 0550            46 45   50/  2/  4 1004.2          1/ 5
4S FIRE IS       0503               44                N/A           2/ 5
20S FIRE ISLAND  0550            45 43  220/  2/  4 1004.7          2/ 5
23SW MTP         NOT AVBL
HUDSON CANYON    NOT AVBL
EXECUTION ROCKS  NOT AVBL
WESTERN LI SOUND NOT AVBL
CENTRAL LI SOUND NOT AVBL
EASTERN LI SOUND 0500            44      30/  4/  6   N/A
ROBBINS REEF     0500            52      30/ 11/ 12 1004.0
$$


>>>>>>>>>>>>>>>>>>>>>>>>>>>> KEY <<<<<<<<<<<<<<<<<<<<<<<<<<<
>                                                          <
>     SKY/WX - SKY CONDITION/PRESENT WEATHER               <
>     TMP    - TEMPERATURE IN FAHRENHEIT                   <
>     DP     - DEWPOINT IN FAHRENHEIT                      <
>     RH     - RELATIVE HUMIDITY IN PERCENT                <
>     WIND   - DIRECTION AND SPEED IN MPH                  <
>     PRES   - MEAN SEA LEVEL PRESSURE IN INCHES OF HG     <
>     WCI    - WIND CHILL INDEX                            <
>     VSB    - VISIBILITY IN MILES                         <
>     HX     - HEAT INDEX                                  <
>     TC     - TEMPERATURE IN CELSIUS                      <
>     VRB    - VARIABLE WIND DIRECTION                     <
>                                                          <
>>>>>>>>>>>>>>>>>>>>>>>>>>>> KEY <<<<<<<<<<<<<<<<<<<<<<<<<<<





USA.gov is the U.S. government's official web portal to all federal, state and local government web resources and services.